H1 CPF 2 NER 2023 12 14 9 348 01 glonass134 H2 1407501 9134 40315 2023 12 14 0 0 0 2023 12 17 23 45 0 900 1 1 0 0 0 1 H9 10 0 60292 0.00000 0 4986609.595 -16451411.124 18827554.277 10 0 60292 900.00000 0 6581304.916 -17966603.403 16840228.826 10 0 60292 1800.00000 0 7882293.551 -19399208.760 14525096.568 10 0 60292 2700.00000 0 8884573.896 -20688278.105 11927034.488 10 0 60292 3600.00000 0 9595523.806 -21775188.068 9096507.977 10 0 60292 4500.00000 0 10034335.152 -22606139.261 6088590.759 10 0 60292 5400.00000 0 10230949.669 -23134475.484 2961887.427 10 0 60292 6300.00000 0 10224541.176 -23322723.897 -222619.893 10 0 60292 7200.00000 0 10061609.155 -23144267.640 -3402777.003 10 0 60292 8100.00000 0 9793765.829 -22584577.928 -6516489.977 10 0 60292 9000.00000 0 9475312.516 -21641951.511 -9502958.241 10 0 60292 9900.00000 0 9160710.367 -20327720.863 -12303882.029 10 0 60292 10800.00000 0 8902055.243 -18665927.359 -14864618.492 10 0 60292 11700.00000 0 8746666.220 -16692471.077 -17135262.028 10 0 60292 12600.00000 0 8734891.936 -14453773.538 -19071626.314 10 0 60292 13500.00000 0 8898229.232 -12005010.589 -20636108.089 10 0 60292 14400.00000 0 9257834.515 -9407990.862 -21798415.675 10 0 60292 15300.00000 0 9823490.949 -6728770.028 -22536148.472 10 0 60292 16200.00000 0 10593074.601 -4035101.689 -22835217.143 10 0 60292 17100.00000 0 11552541.078 -1393831.981 -22690097.744 10 0 60292 18000.00000 0 12676431.874 1131653.410 -22103916.544 10 0 60292 18900.00000 0 13928877.686 3483824.185 -21088365.705 10 0 60292 19800.00000 0 15265055.112 5613144.036 -19663453.238 10 0 60292 20700.00000 0 16633034.382 7479866.019 -17857093.751 10 0 60292 21600.00000 0 17975939.752 9055412.590 -15704549.268 10 0 60292 22500.00000 0 19234331.596 10323285.917 -13247732.059 10 0 60292 23400.00000 0 20348710.397 11279473.649 -10534383.698 10 0 60292 24300.00000 0 21262038.214 11932336.392 -7617146.636 10 0 60292 25200.00000 0 21922172.875 12301984.420 -4552546.257 10 0 60292 26100.00000 0 22284114.032 12419172.113 -1399902.849 10 0 60292 27000.00000 0 22311968.246 12323758.200 1779806.060 10 0 60292 27900.00000 0 21980551.992 12062797.514 4925111.874 10 0 60292 28800.00000 0 21276566.434 11688344.814 7975228.082 10 0 60292 29700.00000 0 20199295.404 11255062.720 10871208.973 10 0 60292 30600.00000 0 18760797.480 10817733.674 13557072.871 10 0 60292 31500.00000 0 16985583.651 10428779.507 15980869.545 10 0 60292 32400.00000 0 14909792.940 10135891.839 18095672.501 10 0 60292 33300.00000 0 12579898.663 9979871.943 19860478.239 10 0 60292 34200.00000 0 10050997.104 9992770.216 21240996.003 10 0 60292 35100.00000 0 7384747.341 10196403.301 22210313.443 10 0 60292 36000.00000 0 4647045.220 10601311.614 22749425.521 10 0 60292 36900.00000 0 1905525.619 11206202.219 22847616.178 10 0 60292 37800.00000 0 -773005.572 11997902.199 22502684.598 10 0 60292 38700.00000 0 -3325104.948 12951826.776 21721010.421 10 0 60292 39600.00000 0 -5693086.514 14032945.130 20517454.962 10 0 60292 40500.00000 0 -7827179.100 15197205.961 18915098.337 10 0 60292 41400.00000 0 -9687356.425 16393365.362 16944815.445 10 0 60292 42300.00000 0 -11244762.931 17565142.044 14644696.933 10 0 60292 43200.00000 0 -12482674.928 18653610.466 12059324.516 10 0 60292 44100.00000 0 -13396955.720 19599731.464 9238913.284 10 0 60292 45000.00000 0 -13995984.629 20346913.160 6238336.837 10 0 60292 45900.00000 0 -14300062.186 20843492.802 3116054.043 10 0 60292 46800.00000 0 -14340316.401 21045032.711 -67041.184 10 0 60292 47700.00000 0 -14157156.650 20916330.931 -3248823.413 10 0 60292 48600.00000 0 -13798341.664 20433059.039 -6367167.355 10 0 60292 49500.00000 0 -13316745.052 19582955.499 -9361181.536 10 0 60292 50400.00000 0 -12767915.155 18366522.148 -12172417.589 10 0 60292 51300.00000 0 -12207535.021 16797192.990 -14746029.421 10 0 60292 52200.00000 0 -11688892.504 14900967.460 -17031857.737 10 0 60292 53100.00000 0 -11260469.815 12715523.582 -18985417.300 10 0 60292 54000.00000 0 -10963756.213 10288848.849 -20568766.860 10 0 60292 54900.00000 0 -10831377.381 7677447.228 -21751244.566 10 0 60292 55800.00000 0 -10885620.858 4944198.629 -22510054.938 10 0 60292 56700.00000 0 -11137419.376 2155961.388 -22830696.964 10 0 60292 57600.00000 0 -11585833.951 -618981.284 -22707226.375 10 0 60292 58500.00000 0 -12218057.023 -3313524.102 -22142348.687 10 0 60292 59400.00000 0 -13009933.761 -5864283.682 -21147343.040 10 0 60292 60300.00000 0 -13926977.798 -8213978.813 -19741820.081 10 0 60292 61200.00000 0 -14925837.027 -10313549.669 -17953320.265 10 0 60292 62100.00000 0 -15956146.542 -12123930.081 -15816761.759 10 0 60292 63000.00000 0 -16962689.965 -13617401.868 -13373749.720 10 0 60292 63900.00000 0 -17887778.009 -14778477.777 -10671761.096 10 0 60292 64800.00000 0 -18673744.469 -15604279.329 -7763221.109 10 0 60292 65700.00000 0 -19265455.422 -16104396.688 -4704489.314 10 0 60292 66600.00000 0 -19612727.150 -16300238.969 -1554774.597 10 0 60292 67500.00000 0 -19672552.420 -16223904.224 1625000.490 10 0 60292 68400.00000 0 -19411042.804 -15916617.849 4773364.956 10 0 60292 69300.00000 0 -18805006.575 -15426805.634 7829472.654 10 0 60292 70200.00000 0 -17843096.695 -14807882.409 10734262.167 10 0 60292 71100.00000 0 -16526481.041 -14115848.615 13431582.256 10 0 60292 72000.00000 0 -14869006.453 -13406794.842 15869262.454 10 0 60292 72900.00000 0 -12896848.792 -12734417.944 18000109.487 10 0 60292 73800.00000 0 -10647661.987 -12147651.858 19782811.496 10 0 60292 74700.00000 0 -8169259.419 -11688511.552 21182733.547 10 0 60292 75600.00000 0 -5517879.994 -11390239.984 22172589.711 10 0 60292 76500.00000 0 -2756108.177 -11275835.673 22732978.980 10 0 60292 77400.00000 0 49468.354 -11357023.202 22852774.374 10 0 60292 78300.00000 0 2830768.796 -11633710.931 22529356.991 10 0 60292 79200.00000 0 5520795.074 -12093960.395 21768689.198 10 0 60292 80100.00000 0 8056168.101 -12714470.745 20585223.879 10 0 60292 81000.00000 0 10379520.025 -13461560.213 19001649.498 10 0 60292 81900.00000 0 12441643.278 -14292605.579 17048473.782 10 0 60292 82800.00000 0 14203306.480 -15157881.030 14763451.982 10 0 60292 83700.00000 0 15636660.589 -16002720.349 12190868.951 10 0 60292 84600.00000 0 16726175.367 -16769911.957 9380687.505 10 0 60292 85500.00000 0 17469065.658 -17402225.502 6387578.783 10 0 60293 0.00000 0 17875188.580 -17844962.278 3269853.548 10 0 60293 900.00000 0 17966415.489 -18048420.052 88314.028 10 0 60293 1800.00000 0 17775504.682 -17970165.224 -3094945.920 10 0 60293 2700.00000 0 17344523.799 -17577014.365 -6217772.801 10 0 60293 3600.00000 0 16722889.264 -16846638.050 -9219187.368 10 0 60293 4500.00000 0 15965107.835 -15768717.095 -12040595.682 10 0 60293 5400.00000 0 15128317.992 -14345600.373 -14626951.266 10 0 60293 6300.00000 0 14269737.579 -12592435.232 -16927843.780 10 0 60293 7200.00000 0 13444127.881 -10536764.402 -18898491.464 10 0 60293 8100.00000 0 12701383.251 -8217606.462 -20500617.155 10 0 60293 9000.00000 0 12084349.334 -5684059.043 -21703190.557 10 0 60293 9900.00000 0 11626962.564 -2993484.252 -22483022.665 10 0 60293 10800.00000 0 11352789.153 -209353.274 -22825201.735 10 0 60293 11700.00000 0 11274024.178 2601158.965 -22723363.710 10 0 60293 12600.00000 0 11390991.361 5369728.188 -22179793.501 10 0 60293 13500.00000 0 11692162.605 8029477.771 -21205356.995 10 0 60293 14400.00000 0 12154694.313 10517510.895 -19819266.893 10 0 60293 15300.00000 0 12745455.785 12777273.688 -18048688.593 10 0 60293 16200.00000 0 13422504.583 14760652.924 -15928195.176 10 0 60293 17100.00000 0 14136945.337 16429723.357 -13499083.143 10 0 60293 18000.00000 0 14835092.878 17758074.615 -10808562.961 10 0 60293 18900.00000 0 15460848.309 18731665.259 -7908840.459 10 0 60293 19800.00000 0 15958188.239 19349171.223 -4856106.921 10 0 60293 20700.00000 0 16273663.057 19621816.659 -1709457.153 10 0 60293 21600.00000 0 16358800.092 19572696.477 1470244.116 10 0 60293 22500.00000 0 16172311.689 19235620.537 4621526.442 10 0 60293 23400.00000 0 15682016.422 18653528.886 7683486.976 10 0 60293 24300.00000 0 14866393.561 17876544.809 10596951.464 10 0 60293 25200.00000 0 13715705.947 16959747.000 13305601.827 10 0 60293 26100.00000 0 12232644.075 15960753.495 15757049.903 10 0 60293 27000.00000 0 10432463.640 14937217.523 17903837.960 10 0 60293 27900.00000 0 8342609.344 13944338.938 19704347.864 10 0 60293 28800.00000 0 6001838.641 13032494.263 21123602.317 10 0 60293 29700.00000 0 3458879.386 12245083.646 22133943.331 10 0 60293 30600.00000 0 770674.342 11616684.277 22715575.111 10 0 60293 31500.00000 0 -1999717.411 11171587.568 22856960.571 10 0 60293 32400.00000 0 -4785477.940 10922781.864 22555063.119 10 0 60293 33300.00000 0 -7518551.430 10871424.400 21815427.793 10 0 60293 34200.00000 0 -10132226.014 11006826.208 20652098.511 10 0 60293 35100.00000 0 -12563670.532 11306952.458 19087371.076 10 0 60293 36000.00000 0 -14756321.383 11739419.185 17151384.591 10 0 60293 36900.00000 0 -16662019.938 12262946.283 14881557.061 10 0 60293 37800.00000 0 -18242810.643 12829207.006 12321874.319 10 0 60293 38700.00000 0 -19472323.530 13384996.803 9522044.527 10 0 60293 39600.00000 0 -20336681.808 13874629.987 6536533.853 10 0 60293 40500.00000 0 -20834895.161 14242462.214 3423501.827 10 0 60293 41400.00000 0 -20978721.132 14435430.568 243657.540 10 0 60293 42300.00000 0 -20791999.905 14405501.573 -2940939.824 10 0 60293 43200.00000 0 -20309490.637 14111920.947 -6068111.076 10 0 60293 44100.00000 0 -19575259.261 13523167.099 -9076791.655 10 0 60293 45000.00000 0 -18640687.323 12618523.089 -11908244.438 10 0 60293 45900.00000 0 -17562187.953 11389198.320 -14507224.846 10 0 60293 46800.00000 0 -16398727.718 9838950.872 -16823073.611 10 0 60293 47700.00000 0 -15209261.304 7984183.164 -18810714.369 10 0 60293 48600.00000 0 -14050189.343 5853506.538 -20431535.720 10 0 60293 49500.00000 0 -12972948.090 3486793.250 -21654140.324 10 0 60293 50400.00000 0 -12021833.388 933756.287 -22454946.755 10 0 60293 51300.00000 0 -11232150.585 -1747882.625 -22818633.343 10 0 60293 52200.00000 0 -10628767.433 -4494559.380 -22738416.732 10 0 60293 53100.00000 0 -10225129.373 -7239277.055 -22216161.397 10 0 60293 54000.00000 0 -10022776.494 -9914157.948 -21262319.823 10 0 60293 54900.00000 0 -10011380.064 -12453032.026 -19895706.291 10 0 60293 55800.00000 0 -10169294.549 -14793954.822 -18143110.361 10 0 60293 56700.00000 0 -10464599.512 -16881551.406 -16038758.958 10 0 60293 57600.00000 0 -10856585.524 -18669090.818 -13623638.616 10 0 60293 58500.00000 0 -11297619.972 -20120206.910 -10944691.786 10 0 60293 59400.00000 0 -11735313.302 -21210196.477 -8053903.201 10 0 60293 60300.00000 0 -12114894.080 -21926843.232 -5007294.018 10 0 60293 61200.00000 0 -12381693.061 -22270735.717 -1863842.969 10 0 60293 62100.00000 0 -12483632.277 -22255068.093 1315645.176 10 0 60293 63000.00000 0 -12373615.252 -21904933.875 4469702.801 10 0 60293 63900.00000 0 -12011718.736 -21256143.321 7537372.798 10 0 60293 64800.00000 0 -11367094.676 -20353614.500 10459370.646 10 0 60293 65700.00000 0 -10419503.077 -19249405.304 13179214.104 10 0 60293 66600.00000 0 -9160411.515 -18000468.152 15644300.032 10 0 60293 67500.00000 0 -7593614.719 -16666220.280 17806908.898 10 0 60293 68400.00000 0 -5735347.133 -15306029.934 19625118.817 10 0 60293 69300.00000 0 -3613881.902 -13976722.214 21063612.418 10 0 60293 70200.00000 0 -1268630.640 -12730207.524 22094361.642 10 0 60293 71100.00000 0 1251221.412 -11611330.778 22697177.527 10 0 60293 72000.00000 0 3888491.096 -10656030.693 22860114.103 10 0 60293 72900.00000 0 6580113.193 -9889886.089 22579717.902 10 0 60293 73800.00000 0 9259511.397 -9327110.516 21861117.035 10 0 60293 74700.00000 0 11859128.256 -8970038.300 20717946.460 10 0 60293 75600.00000 0 14313010.683 -8809124.961 19172108.947 10 0 60293 76500.00000 0 16559344.525 -8823463.586 17253374.212 10 0 60293 77400.00000 0 18542832.780 -8981797.060 14998821.889 10 0 60293 78300.00000 0 20216817.786 -9243984.933 12452137.267 10 0 60293 79200.00000 0 21545057.580 -9562863.961 9662771.947 10 0 60293 80100.00000 0 22503080.568 -9886424.085 6684984.835 10 0 60293 81000.00000 0 23079060.099 -10160207.345 3576781.862 10 0 60293 81900.00000 0 23274170.733 -10329827.022 398775.482 10 0 60293 82800.00000 0 23102410.159 -10343498.393 -2787012.660 10 0 60293 83700.00000 0 22589893.801 -10154471.456 -5918380.914 10 0 60293 84600.00000 0 21773652.092 -9723259.841 -8934182.620 10 0 60293 85500.00000 0 20699982.121 -9019568.745 -11775540.555 10 0 60294 0.00000 0 19422424.881 -8023837.899 -14387014.694 10 0 60294 900.00000 0 17999454.774 -6728331.653 -16717699.940 10 0 60294 1800.00000 0 16491982.738 -5137730.090 -18722227.400 10 0 60294 2700.00000 0 14960778.038 -3269193.655 -20361653.448 10 0 60294 3600.00000 0 13463920.687 -1151899.670 -21604215.379 10 0 60294 4500.00000 0 12054392.153 1173929.926 -22425940.677 10 0 60294 5400.00000 0 10777906.068 3658468.068 -22811098.710 10 0 60294 6300.00000 0 9671069.590 6244128.179 -22752487.421 10 0 60294 7200.00000 0 8759951.289 8867737.984 -22251551.067 10 0 60294 8100.00000 0 8059113.666 11462950.240 -21318328.574 10 0 60294 9000.00000 0 7571148.366 13962789.804 -19971235.288 10 0 60294 9900.00000 0 7286730.809 16302231.263 -18236684.054 10 0 60294 10800.00000 0 7185189.095 18420700.732 -16148554.421 10 0 60294 11700.00000 0 7235560.703 20264399.133 -13747521.382 10 0 60294 12600.00000 0 7398090.326 21788352.055 -11080257.470 10 0 60294 13500.00000 0 7626104.233 22958103.016 -8198524.087 10 0 60294 14400.00000 0 7868181.256 23750981.909 -5158169.729 10 0 60294 15300.00000 0 8070528.596 24156898.024 -2018054.260 10 0 60294 16200.00000 0 8179462.606 24178626.683 1161080.485 10 0 60294 17100.00000 0 8143890.624 23831579.270 4317772.806 10 0 60294 18000.00000 0 7917690.234 23143067.518 7391014.438 10 0 60294 18900.00000 0 7461886.680 22151093.472 10321413.634 10 0 60294 19800.00000 0 6746537.614 20902715.779 13052326.885 10 0 60294 20700.00000 0 5752246.305 19452060.068 15530938.759 10 0 60294 21600.00000 0 4471239.669 17858055.566 17709270.374 10 0 60294 22500.00000 0 2907965.113 16181991.103 19545098.254 10 0 60294 23400.00000 0 1079179.726 14484991.043 21002766.797 10 0 60294 24300.00000 0 -986474.042 12825514.911 22053879.365 10 0 60294 25200.00000 0 -3249391.216 11256983.723 22677854.929 10 0 60294 26100.00000 0 -5660390.206 9825631.033 22862339.307 10 0 60294 27000.00000 0 -8162507.315 8568667.832 22603462.350 10 0 60294 27900.00000 0 -10693128.261 7512837.919 21905934.938 10 0 60294 28800.00000 0 -13186370.752 6673424.589 20782982.248 10 0 60294 29700.00000 0 -15575621.153 6053751.166 19256112.671 10 0 60294 30600.00000 0 -17796121.044 5645197.520 17354724.709 10 0 60294 31500.00000 0 -19787496.450 5427733.263 15115557.369 10 0 60294 32400.00000 0 -21496123.953 5370946.446 12581992.807 10 0 60294 33300.00000 0 -22877233.860 5435525.381 9803223.235 10 0 60294 34200.00000 0 -23896660.857 5575131.473 6833297.348 10 0 60294 35100.00000 0 -24532166.934 5738583.685 3730064.500 10 0 60294 36000.00000 0 -24774279.238 5872261.253 554037.590 10 0 60294 36900.00000 0 -24626606.018 5922621.224 -2632802.090 10 0 60294 37800.00000 0 -24105616.337 5838721.883 -5768233.101 10 0 60294 38700.00000 0 -23239892.437 5574642.489 -8791029.212 10 0 60294 39600.00000 0 -22068886.617 5091693.982 -11642175.461 10 0 60294 40500.00000 0 -20641236.122 4360324.356 -14266038.987 10 0 60294 41400.00000 0 -19012708.645 3361635.742 -16611469.856 10 0 60294 42300.00000 0 -17243867.005 2088447.294 -18632808.800 10 0 60294 43200.00000 0 -15397553.310 545857.840 -20290781.295 10 0 60294 44100.00000 0 -13536300.249 -1248715.901 -21553260.224 10 0 60294 45000.00000 0 -11719779.602 -3266027.064 -22395882.540 10 0 60294 45900.00000 0 -10002395.728 -5465991.323 -22802508.819 10 0 60294 46800.00000 0 -8431124.781 -7799142.130 -22765518.082 10 0 60294 47700.00000 0 -7043689.221 -10208486.689 -22285933.809 10 0 60294 48600.00000 0 -5867142.288 -12631684.382 -21373380.502 10 0 60294 49500.00000 0 -4916919.284 -15003456.285 -20045873.430 10 0 60294 50400.00000 0 -4196392.533 -17258125.216 -18329447.370 10 0 60294 51300.00000 0 -3696945.602 -19332180.946 -16257632.959 10 0 60294 52200.00000 0 -3398560.626 -21166764.631 -13870791.989 10 0 60294 53100.00000 0 -3270891.370 -22709970.374 -11215325.313 10 0 60294 54000.00000 0 -3274774.697 -23918869.754 -8342769.192 10 0 60294 54900.00000 0 -3364115.255 -24761176.938 -5308797.607 10 0 60294 55800.00000 0 -3488063.101 -25216486.965 -2172149.677 10 0 60294 56700.00000 0 -3593392.262 -25277037.485 1006497.622 10 0 60294 57600.00000 0 -3626980.267 -24947963.818 4165690.485 10 0 60294 58500.00000 0 -3538284.862 -24247037.955 7244371.540 10 0 60294 59400.00000 0 -3281714.419 -23203903.126 10183043.945 10 0 60294 60300.00000 0 -2818793.149 -21858836.054 12924905.113 10 0 60294 61200.00000 0 -2120030.621 -20261088.155 15416929.536 10 0 60294 62100.00000 0 -1166417.269 -18466873.956 17610881.150 10 0 60294 63000.00000 0 49517.263 -16537089.257 19464236.942 10 0 60294 63900.00000 0 1523128.343 -14534852.520 20941004.941 10 0 60294 64800.00000 0 3237588.941 -12522970.212 22012421.525 10 0 60294 65700.00000 0 5164335.822 -10561429.993 22657514.876 10 0 60294 66600.00000 0 7264013.496 -8705024.790 22863523.524 10 0 60294 67500.00000 0 9487879.754 -7001205.738 22626161.202 10 0 60294 68400.00000 0 11779617.378 -5488252.938 21949721.743 10 0 60294 69300.00000 0 14077479.495 -4193840.411 20847020.381 10 0 60294 70200.00000 0 16316681.678 -3134055.649 19339170.624 10 0 60294 71100.00000 0 18431942.889 -2312915.687 17455198.938 10 0 60294 72000.00000 0 20360070.236 -1722401.080 15231502.556 10 0 60294 72900.00000 0 22042479.668 -1343007.504 12711159.040 10 0 60294 73800.00000 0 23427546.511 -1144792.718 9943099.431 10 0 60294 74700.00000 0 24472685.944 -1088875.288 6981160.106 10 0 60294 75600.00000 0 25146074.282 -1129321.782 3883031.438 10 0 60294 76500.00000 0 25427936.720 -1215341.922 709124.100 10 0 60294 77400.00000 0 25311345.373 -1293697.381 -2478623.835 10 0 60294 78300.00000 0 24802492.448 -1311220.123 -5617974.118 10 0 60294 79200.00000 0 23920426.025 -1217331.086 -8647623.913 10 0 60294 80100.00000 0 22696259.275 -966449.696 -11508423.384 10 0 60294 81000.00000 0 21171886.919 -520189.351 -14144549.300 10 0 60294 81900.00000 0 19398264.056 150756.539 -16504609.793 10 0 60294 82800.00000 0 17433321.463 1065119.823 -18542657.134 10 0 60294 83700.00000 0 15339606.851 2230018.744 -20219087.778 10 0 60294 84600.00000 0 13181752.975 3640419.585 -21501411.788 10 0 60294 85500.00000 0 11023880.358 5279121.600 -22364876.902 10 0 60295 0.00000 0 8927044.601 7117265.341 -22792935.895 10 0 60295 900.00000 0 6946834.238 9115343.270 -22777549.656 10 0 60295 1800.00000 0 5131221.843 11224666.855 -22319321.197 10 0 60295 2700.00000 0 3518753.007 13389231.059 -21427460.601 10 0 60295 3600.00000 0 2137149.537 15547895.146 -20119582.698 10 0 60295 4500.00000 0 1002381.374 17636789.227 -18421343.441 10 0 60295 5400.00000 0 118243.090 19591845.973 -16365923.420 10 0 60295 6300.00000 0 -523550.548 21351352.396 -13993369.704 10 0 60295 7200.00000 0 -942757.057 22858416.170 -11349809.594 10 0 60295 8100.00000 0 -1169514.988 24063244.974 -8486551.984 10 0 60295 9000.00000 0 -1242816.954 24925145.396 -5459093.821 10 0 60295 9900.00000 0 -1208612.682 25414159.700 -2326050.703 10 0 60295 10800.00000 0 -1117622.734 25512273.902 851968.229 10 0 60295 11700.00000 0 -1022955.167 25214148.243 4013520.150 10 0 60295 12600.00000 0 -977625.131 24527340.777 7097501.717 10 0 60295 13500.00000 0 -1032081.203 23472015.463 10044314.073 10 0 60295 14400.00000 0 -1231841.716 22080147.167 12796998.528 10 0 60295 15300.00000 0 -1615339.734 20394256.350 15302322.291 10 0 60295 16200.00000 0 -2212066.769 18465725.289 17511794.684 10 0 60295 17100.00000 0 -3041093.116 16352764.584 19382595.446 10 0 60295 18000.00000 0 -4110027.440 14118112.893 20878398.210 10 0 60295 18900.00000 0 -5414460.421 11826563.726 21970073.988 10 0 60295 19800.00000 0 -6937917.638 9542420.198 22636261.392 10 0 60295 20700.00000 0 -8652326.129 7326981.918 22863792.425 10 0 60295 21600.00000 0 -10518978.041 5236167.094 22647964.971 10 0 60295 22500.00000 0 -12489954.252 3318367.851 21992655.563 10 0 60295 23400.00000 0 -14509951.582 1612627.691 20910268.666 10 0 60295 24300.00000 0 -16518440.042 147217.146 19421521.536 10 0 60295 25200.00000 0 -18452062.224 -1061332.322 17555066.687 10 0 60295 26100.00000 0 -20247175.929 -2008694.882 15346957.190 10 0 60295 27000.00000 0 -21842434.221 -2702696.777 12839963.222 10 0 60295 27900.00000 0 -23181294.497 -3162743.957 10082751.563 10 0 60295 28800.00000 0 -24214350.171 -3418754.318 7128942.996 10 0 60295 29700.00000 0 -24901385.287 -3509639.395 4036065.564 10 0 60295 30600.00000 0 -25213063.522 -3481400.061 864424.383 10 0 60295 31500.00000 0 -25132178.208 -3384917.897 -2324088.924 10 0 60295 32400.00000 0 -24654408.699 -3273537.495 -5467222.366 10 0 60295 33300.00000 0 -23788549.595 -3200544.426 -8503599.390 10 0 60295 34200.00000 0 -22556202.238 -3216648.388 -11373937.955 10 0 60295 35100.00000 0 -20990941.271 -3367580.941 -14022226.862 10 0 60295 36000.00000 0 -19136991.873 -3691912.147 -16396834.419 10 0 60295 36900.00000 0 -17047474.482 -4219180.766 -18451526.176 10 0 60295 37800.00000 0 -14782292.309 -4968418.689 -20146370.873 10 0 60295 38700.00000 0 -12405751.976 -5947132.942 -21448516.587 10 0 60295 39600.00000 0 -9984018.604 -7150788.502 -22332822.133 10 0 60295 40500.00000 0 -7582513.024 -8562813.425 -22782332.305 10 0 60295 41400.00000 0 -5263360.441 -10155125.341 -22788588.982 10 0 60295 42300.00000 0 -3082996.984 -11889156.154 -22351773.673 10 0 60295 43200.00000 0 -1090032.937 -13717330.863 -21480680.515 10 0 60295 44100.00000 0 676539.963 -15584937.544 -20192522.092 10 0 60295 45000.00000 0 2188724.866 -17432309.436 -18512573.515 10 0 60295 45900.00000 0 3430425.299 -19197227.530 -16473663.162 10 0 60295 46800.00000 0 4397845.288 -20817443.289 -14115521.126 10 0 60295 47700.00000 0 5099370.621 -22233216.601 -11483998.858 10 0 60295 48600.00000 0 5554939.314 -23389763.862 -8630175.587 10 0 60295 49500.00000 0 5794930.317 -24239515.201 -5609368.938 10 0 60295 50400.00000 0 5858619.146 -24744087.956 -2480068.737 10 0 60295 51300.00000 0 5792266.696 -24875895.496 697185.902 10 0 60295 52200.00000 0 5646922.322 -24619325.531 3860965.279 10 0 60295 53100.00000 0 5476033.638 -23971439.848 6950122.161 10 0 60295 54000.00000 0 5332963.212 -22942166.947 9904957.690 10 0 60295 54900.00000 0 5268515.874 -21553979.776 12668358.990 10 0 60295 55800.00000 0 5328579.781 -19841071.652 15186887.787 10 0 60295 56700.00000 0 5551979.635 -17848063.831 17411800.429 10 0 60295 57600.00000 0 5968631.778 -15628297.113 19299980.841 10 0 60295 58500.00000 0 6598078.638 -13241776.778 20814769.445 10 0 60295 59400.00000 0 7448464.626 -10752854.210 21926672.770 10 0 60295 60300.00000 0 8515997.698 -8227739.365 22613940.422 10 0 60295 61200.00000 0 9784921.081 -5731945.383 22862998.113 10 0 60295 62100.00000 0 11227998.825 -3327769.707 22668727.780 10 0 60295 63000.00000 0 12807497.737 -1071914.972 22034588.240 10 0 60295 63900.00000 0 14476627.574 986652.192 20972572.501 10 0 60295 64800.00000 0 16181382.091 2808515.599 19503000.610 10 0 60295 65700.00000 0 17862706.340 4365221.336 17654149.950 10 0 60295 66600.00000 0 19458901.189 5640227.301 15461728.028 10 0 60295 67500.00000 0 20908165.292 6629349.826 12968196.026 10 0 60295 68400.00000 0 22151167.881 7340687.683 10221954.645 10 0 60295 69300.00000 0 23133543.519 7794025.840 7276407.051 10 0 60295 70200.00000 0 23808202.316 8019743.665 4188916.730 10 0 60295 71100.00000 0 24137356.252 8057273.765 1019680.842 10 0 60295 72000.00000 0 24094173.833 7953177.328 -2169457.965 10 0 60295 72900.00000 0 23663990.961 7758918.856 -5316236.551 10 0 60295 73800.00000 0 22845024.871 7528436.512 -8359207.215 10 0 60295 74700.00000 0 21648559.515 7315613.476 -11238958.173 10 0 60295 75600.00000 0 20098593.730 7171760.082 -13899292.554 10 0 60295 76500.00000 0 18230966.876 7143216.027 -16288340.913 10 0 60295 77400.00000 0 16091999.355 7269176.449 -18359583.902 10 0 60295 78300.00000 0 13736706.211 7579835.671 -20072764.137 10 0 60295 79200.00000 0 11226660.187 8094928.229 -21394669.054 10 0 60295 80100.00000 0 8627595.283 8822729.228 -22299769.677 10 0 60295 81000.00000 0 6006852.278 9759556.002 -22770703.697 10 0 60295 81900.00000 0 3430773.749 10889791.292 -22798594.699 10 0 60295 82800.00000 0 962157.442 12186425.854 -22383202.965 10 0 60295 83700.00000 0 -1342126.415 13612096.323 -21532906.694 10 0 60295 84600.00000 0 -3433256.004 15120573.503 -20264515.847 10 0 60295 85500.00000 0 -5272230.694 16658637.490 -18602923.917 99